Flag for Israel

Past Weather in Bnei Brak, Israel — Yesterday and Last 2 Weeks

Now
81 °F

Passing clouds.


Feels Like: 84 °F
Forecast: 89 / 80 °F
Wind: 5 mph from Southeast

Location: Ben Gurion International Airport
Current Time: Sep 29, 2020 at 8:43:32 am
Latest Report: Sep 29, 2020 at 8:20 am
Visibility: N/A
Pressure29.95 "Hg
Humidity: 70%
Dew Point: 70 °F
Location of Bnei BrakLocation

Past Weather in Bnei Brak — Graph

°F

Bnei Brak Temperature Yesterday

Maximum temperature yesterday: 93 °F (at 12:50 pm)
Minimum temperature yesterday: 73 °F (at 7:50 am)
Average temperature yesterday: 85 °F

High & Low Weather Summary for the Past Weeks

 TemperatureHumidityPressure
High93 °F (Sep 18, 12:20 pm)89% (Sep 18, 2:50 am)30.01 "Hg (Sep 18, 2:50 am)
Low72 °F (Sep 27, 5:20 am)43% (Sep 21, 1:20 pm)29.74 "Hg (Sep 20, 2:20 pm)
Average82 °F66%29.88 "Hg
* Reported Sep 14 7:20 am — Sep 29 7:50 am, Bnei Brak. Weather by CustomWeather, © 2020

Note: Actual official high and low records may vary slightly from our data, if they occured in-between our weather recording intervals... More about our weather records

Bnei Brak Weather History for the Previous 24 Hours

Scroll right to see more
 ConditionsComfort  
Time TempWeatherWind HumidityBarometerVisibility
7:50 am
Tue, Sep 29
79 °FPassing clouds.2 mph74%29.95 "HgN/A
7:20 am77 °FScattered clouds.2 mph79%29.95 "HgN/A
6:50 am77 °FScattered clouds.3 mph79%29.95 "HgN/A
6:20 am77 °FPassing clouds.5 mph79%29.95 "HgN/A
5:50 am77 °FPassing clouds.2 mph79%29.95 "HgN/A
5:20 am77 °FPassing clouds.2 mph79%29.95 "HgN/A
4:50 am77 °FPassing clouds.2 mph74%29.95 "HgN/A
3:50 am77 °FPassing clouds.3 mph74%29.92 "HgN/A
3:20 am77 °FPassing clouds.5 mph74%29.95 "HgN/A
2:50 am77 °FPassing clouds.6 mph79%29.95 "HgN/A
2:20 am77 °FPassing clouds.6 mph79%29.95 "HgN/A
1:50 am77 °FPassing clouds.3 mph79%29.95 "HgN/A
1:20 am79 °FPassing clouds.5 mph79%29.95 "HgN/A
12:50 am77 °FPassing clouds.3 mph79%29.95 "HgN/A
12:20 am77 °FPassing clouds.2 mph79%29.95 "HgN/A
11:50 pm
Mon, Sep 28
79 °FPassing clouds.2 mph74%29.98 "HgN/A
11:20 pm79 °FClear.2 mph79%29.98 "Hg10 mi
10:50 pm81 °FClear.3 mph74%29.95 "Hg10 mi
10:20 pm81 °FClear.2 mph79%29.95 "Hg10 mi
9:50 pm81 °FClear.3 mph79%29.95 "Hg10 mi
9:20 pm82 °FClear.3 mph74%29.95 "Hg10 mi
8:50 pm82 °FClear.6 mph74%29.95 "Hg10 mi
8:20 pm82 °FClear.5 mph74%29.95 "Hg10 mi
7:50 pm82 °FClear.8 mph74%29.95 "Hg10 mi
7:20 pm84 °FClear.7 mph66%29.95 "Hg10 mi
6:50 pm84 °FClear.8 mph62%29.95 "Hg10 mi
5:50 pm88 °FSunny.14 mph55%29.95 "Hg10 mi
4:50 pm91 °FSunny.13 mph49%29.95 "Hg10 mi
3:50 pm91 °FSunny.12 mph46%29.95 "Hg10 mi
2:50 pm91 °FSunny.13 mph44%29.95 "Hg10 mi
1:50 pm93 °FPassing clouds.14 mph44%29.98 "HgN/A
12:50 pm93 °FPassing clouds.13 mph47%29.98 "HgN/A
11:50 am91 °FPassing clouds.6 mph52%30.01 "HgN/A
10:50 am90 °FSunny.2 mph46%30.01 "Hg10 mi
9:50 am84 °FSunny.2 mph58%30.01 "Hg10 mi
8:50 am81 °FSunny.2 mph58%30.01 "Hg10 mi
Weather by CustomWeather, © 2020

See weather overview